Notices

What's New in latest Release from April 7th, 2021:

- Updated Glossary, including Speed of Maximum Gust, and Total Hourly Precipitation

- Updated national and regional climate services offices contacts and prices information

- Addition of station inventory lists for 1981-2010, 1971-2000, and 1961-1990 Normals.

If you haven't already, please take our survey and provide feedback about our website: https://eccc.sondage-survey.ca/f/LanguageSelection.aspx?s=442ca660-fcf1-47c0-95a9-59707d6fd709

Hourly Data Report for April 19, 2017

MIRAMICHI RCS
NEW BRUNSWICK

47°00'34.000" N
65°27'54.000" W
33.00 m
8100989
71744
ACQ

Download Data

Hourly Data (April 2017)
Hourly Data Report for April 19, 2017
TIME
LST
Temp Definition
°C
Dew Point Definition
°C
Rel Hum Definition
%
Precip. Amount Definition
mm

Wind Dir Definition
10's deg

Wind Spd Definition
km/h
Visibility Definition
km
Stn Press Definition
kPa
Hmdx Definition


Wind Chill Definition


Weather Definition


00:00 -4.9 -6.9 86 0.0 10 4   103.35   -7 LegendNANA
01:00 -5.3 -6.8 89 0.0   0   103.33     LegendNANA
02:00 -5.1 -6.5 90 0.0 9 3   103.30   -6 LegendNANA
03:00 -6.4 -7.6 91 0.0   0   103.30     LegendNANA
04:00 -6.7 -7.8 92 0.0 28 2   103.32   -8 LegendNANA
05:00 -6.9 -8.0 92 0.0   0   103.34     LegendNANA
06:00 -6.8 -8.1 91 0.0 28 3   103.40   -8 LegendNANA
07:00 -3.1 -5.2 85 0.0 24 2   103.46   -4 LegendNANA
08:00 -1.8 -5.6 75 0.0 19 9   103.43   -5 LegendNANA
09:00 -0.1 -7.4 58 0.0 15 7   103.30   -3 LegendNANA
10:00 1.7 -6.4 55 0.0 12 11   103.16     LegendNANA
11:00 3.3 -6.0 51 0.0 13 13   103.04     LegendNANA
12:00 4.2 -5.9 48 0.0 12 11   102.95     LegendNANA
13:00 5.2 -6.3 43 0.0 17 13   102.88     LegendNANA
14:00 6.4 -6.2 40 0.0 14 14   102.77     LegendNANA
15:00 7.1 -7.0 36 0.0 17 13   102.61     LegendNANA
16:00 7.5 -8.1 32 0.0 20 14   102.50     LegendNANA
17:00 5.4 -7.4 39 0.0 11 26   102.36     LegendNANA
18:00 4.2 -5.5 49 0.0 12 21   102.37     LegendNANA
19:00 2.5 -6.2 53 0.0 12 15   102.38     LegendNANA
20:00 1.4 -6.7 55 0.0 14 12   102.34     LegendNANA
21:00 1.2 -7.0 54 0.0 14 12   102.30     LegendNANA
22:00 1.0 -6.4 58 0.0 15 11   102.22     LegendNANA
23:00 1.5 -7.4 52 0.0 18 11   102.21     LegendNANA

Notes on Data Quality.

Legend

  • E = Estimated
  • M = Missing
  • NA = Not Available*
  • [empty] = Indicates an unobserved value
Date modified: